Theta_e
309 309 310 311 311 309 308 308 307 308 307 308 309 310 311 310 308 307 307 307 306 307 309 309 308 307 306 306 306 306 307 307 306 306 306 306 306 306 306 306 306 306 306 306 304 302 303 304 304 304 304 304 304 303 303 303 303 304 304 305 305 306 307 308 308 309 309 309 310 310 311 311 312 312 312 312 312 312 312 312 312 312 312 312 311 311
307 310 311 310 310 308 309 310 308 308 309 308 309 309 309 308 307 306 307 308 306 308 310 310 308 307 306 307 307 307 307 307 307 307 306 307 306 307 307 307 307 306 306 306 306 303 302 302 303 304 306 306 306 306 305 304 303 303 304 304 305 306 307 308 308 309 309 309 310 310 311 311 311 312 312 312 312 312 312 312 312 312 312 312 312 312
309 312 312 309 309 308 308 310 309 309 309 308 308 308 308 308 308 308 309 310 307 307 311 310 308 308 308 307 307 308 307 307 308 307 307 307 307 308 307 308 307 307 307 307 307 307 303 301 304 307 307 306 306 306 305 304 303 303 303 304 305 306 307 308 308 309 309 309 310 310 310 310 311 311 311 312 312 312 312 312 312 312 312 312 312 313
314 315 313 310 310 309 308 309 309 309 309 309 309 309 308 308 309 309 311 313 310 308 309 309 308 308 308 309 311 309 308 310 310 309 309 308 309 309 308 309 309 308 308 308 307 308 307 305 306 308 307 306 305 306 306 304 304 303 304 304 305 306 307 308 309 309 309 309 309 309 309 310 310 310 311 311 311 311 312 312 312 313 313 313 313 313
314 315 312 310 311 311 310 310 310 310 310 311 310 309 308 309 310 309 310 311 311 311 309 309 311 314 316 316 315 311 311 312 311 310 312 311 310 309 309 310 309 308 308 309 310 310 312 315 313 309 308 308 307 307 307 306 306 306 305 305 305 306 307 308 309 309 309 309 308 308 308 309 309 309 309 309 309 310 311 311 312 312 312 313 313 313
312 312 311 312 313 311 310 312 313 312 313 314 314 311 310 310 310 310 310 309 313 318 313 310 314 320 321 316 312 312 314 314 310 310 313 313 312 310 310 309 308 308 308 308 310 310 312 319 318 311 308 310 309 308 308 308 308 308 307 307 306 306 307 308 309 309 309 309 308 308 308 308 308 307 307 308 309 309 309 310 310 311 312 312 312 312
312 310 309 312 313 312 313 313 313 312 311 314 316 314 311 310 310 311 312 311 314 319 314 310 315 317 315 312 313 316 317 315 311 311 313 313 312 311 309 307 306 306 308 310 312 312 314 319 323 319 310 309 311 310 309 308 308 308 309 308 307 307 307 308 309 309 309 309 308 309 309 308 308 307 308 308 309 309 309 309 310 311 311 311 312 312
313 311 311 311 312 314 313 313 314 312 312 316 315 315 315 313 313 315 313 312 315 316 312 311 314 316 315 314 315 315 314 314 312 312 314 313 313 313 313 312 310 309 310 314 319 319 318 322 327 321 312 310 311 310 310 310 309 308 308 309 308 308 308 309 309 309 309 309 309 309 308 308 308 308 308 308 309 309 309 309 309 310 310 310 311 311
311 313 315 314 313 314 314 316 315 311 313 318 314 312 315 314 316 316 313 314 317 313 312 314 312 314 320 318 314 313 312 314 315 315 316 316 314 315 319 320 318 316 314 317 323 325 325 329 324 310 306 310 310 310 311 310 310 308 307 308 309 309 309 309 309 309 309 309 309 309 308 308 308 308 308 308 308 308 308 308 308 309 309 309 309 310
310 312 315 316 315 316 318 316 313 311 312 313 310 311 315 317 317 316 313 315 316 313 313 316 312 312 318 317 313 314 315 317 319 318 319 319 317 315 318 323 322 322 322 323 326 329 331 326 313 304 305 308 309 310 311 310 310 309 307 307 308 309 309 309 310 310 309 309 309 309 308 308 308 308 307 308 308 308 308 308 308 308 308 308 309 309
311 309 309 313 315 318 319 313 308 311 312 310 310 313 316 318 317 317 318 316 314 317 316 314 313 311 314 318 317 316 316 317 316 318 321 320 320 317 315 321 325 325 327 328 327 330 328 314 303 303 307 307 308 310 310 310 310 309 308 307 307 308 309 310 310 310 310 309 309 309 309 308 308 308 307 307 307 307 307 307 308 308 308 308 308 308
312 310 311 314 313 313 314 310 308 309 310 312 315 316 316 319 317 317 321 316 315 321 317 312 312 310 313 319 320 316 312 311 311 313 317 317 318 316 314 318 321 322 326 328 328 330 330 321 312 310 309 306 309 310 309 311 310 309 309 307 307 307 307 309 309 310 310 310 309 309 309 309 308 308 308 307 308 307 307 308 308 308 307 307 307 307
314 313 314 312 310 310 312 313 311 309 309 311 316 318 318 320 319 319 320 317 318 320 314 310 311 310 312 314 312 312 310 310 310 310 311 313 313 313 315 316 314 316 322 324 326 328 333 334 328 325 319 307 306 310 310 310 310 309 309 308 308 307 307 307 308 309 310 310 310 310 309 309 308 308 308 308 308 308 308 308 308 307 307 307 307 307
317 315 312 311 312 310 312 315 315 315 313 311 315 319 319 319 320 321 320 315 315 315 309 307 310 312 314 313 311 311 310 310 310 309 310 310 310 310 313 313 310 312 318 322 325 327 334 338 333 334 326 307 304 308 309 309 309 309 309 308 308 308 307 307 307 307 309 309 310 310 309 309 309 308 308 308 308 308 308 308 308 308 308 307 307 307
321 321 314 312 313 309 309 313 318 321 315 312 315 316 317 321 321 322 320 314 313 316 311 306 310 318 320 317 313 310 310 310 308 308 310 310 310 309 310 311 311 312 315 322 326 326 331 334 335 336 319 301 303 308 307 308 309 308 308 308 308 308 307 307 307 307 308 309 309 310 309 309 309 309 309 308 308 308 308 308 308 308 308 308 308 308
315 319 314 308 307 307 309 310 313 319 315 311 312 312 316 319 316 315 314 310 309 312 313 311 313 320 319 314 311 309 309 309 309 310 310 309 308 307 309 310 310 311 313 319 325 328 329 329 337 338 314 299 303 307 307 308 308 308 308 308 308 308 307 307 307 307 307 308 308 309 309 309 309 309 309 309 308 308 308 308 308 308 308 308 308 308
315 317 312 307 307 306 307 308 309 315 315 312 311 314 315 310 309 313 311 308 307 308 313 314 314 317 314 312 314 314 313 313 315 316 313 310 307 309 314 311 308 309 311 315 319 324 327 328 335 326 304 300 305 307 308 309 308 309 308 307 307 307 306 307 306 306 307 307 307 308 308 309 309 309 309 309 308 308 308 308 308 308 308 308 308 308
317 316 311 308 311 307 302 306 309 309 310 312 314 315 311 305 309 313 311 313 313 313 315 313 312 313 312 315 320 318 316 315 315 315 314 314 312 315 319 316 313 310 308 312 314 316 322 327 333 320 301 302 308 307 308 308 307 308 308 307 307 307 307 307 306 306 306 306 307 307 307 308 308 308 309 308 309 308 308 307 307 307 308 308 308 308
313 314 312 306 309 308 303 307 312 308 306 309 312 310 309 312 317 312 310 317 316 313 317 315 313 311 308 315 321 314 314 316 314 313 314 316 315 315 318 318 322 319 312 314 315 317 321 323 331 325 306 303 306 307 307 307 306 307 307 308 307 307 307 307 307 306 306 306 306 306 307 307 308 308 308 308 308 308 307 307 307 307 307 307 307 308
310 312 315 307 305 308 307 311 316 313 307 307 308 307 308 314 318 313 311 316 315 313 317 317 317 314 310 315 319 314 314 315 315 315 315 316 315 314 313 314 322 326 320 317 317 320 323 323 325 315 303 302 305 306 306 306 307 307 307 308 308 308 307 307 307 306 306 306 306 306 306 306 307 307 307 308 307 307 307 307 307 307 307 307 307 307
309 309 315 310 304 307 312 313 314 315 312 310 311 312 310 309 312 312 309 311 315 317 317 316 317 313 312 316 317 314 316 316 315 314 313 315 316 315 312 309 314 323 324 321 321 322 322 322 319 305 299 303 305 305 306 306 307 307 307 307 307 307 307 307 307 306 306 306 306 306 306 306 306 306 307 308 307 307 307 307 307 307 307 307 307 307
311 311 316 315 310 312 317 311 307 310 311 311 312 313 312 310 311 314 311 309 311 314 316 316 315 311 312 318 317 312 314 317 316 314 313 316 316 316 315 311 308 313 319 318 317 318 318 319 318 308 301 302 303 305 306 306 306 307 307 307 307 307 307 307 307 306 306 306 306 306 306 306 306 306 306 307 307 307 307 307 307 307 307 307 307 307
313 312 314 316 314 313 309 304 301 305 307 309 311 312 311 311 312 315 316 312 309 309 311 313 314 312 312 316 315 310 311 315 315 313 314 316 316 318 321 319 312 309 312 312 308 309 312 314 316 311 304 300 300 302 304 304 306 307 307 307 306 307 307 307 306 306 306 306 306 306 306 306 306 306 306 306 307 307 307 307 307 307 307 307 307 307
313 313 313 316 318 313 306 302 302 303 306 309 311 310 310 310 310 312 314 313 312 311 310 311 313 313 312 318 321 317 314 315 315 314 314 316 317 321 325 325 319 313 314 316 313 311 310 311 314 314 313 310 303 300 301 303 304 306 307 307 306 307 308 307 307 306 306 306 306 306 306 306 306 306 306 306 306 307 307 307 307 307 307 307 307 307
312 315 315 316 320 319 313 310 308 307 307 310 313 311 309 309 309 310 309 308 310 314 314 314 314 312 312 318 320 319 317 315 314 314 315 317 317 318 320 318 315 314 316 320 319 317 316 317 317 315 317 315 305 300 301 303 303 304 306 306 306 307 307 307 307 306 306 306 306 306 306 306 306 306 306 306 306 306 306 307 307 307 307 307 307 307
314 316 314 314 317 316 314 316 317 315 309 308 313 312 309 308 309 311 312 310 311 314 314 313 313 310 310 313 312 311 313 312 310 311 312 315 316 315 316 315 313 314 315 315 314 314 316 317 315 311 313 311 303 300 302 302 302 303 304 305 306 306 307 307 306 306 306 306 306 306 306 306 306 306 306 306 306 306 307 307 307 307 306 306 307 307
316 315 312 314 315 312 312 313 315 315 312 312 315 312 308 308 308 310 313 313 313 313 311 309 310 310 309 310 309 309 309 309 309 309 309 310 312 312 312 312 312 312 311 311 311 311 313 313 311 309 309 308 302 299 302 302 302 302 302 303 305 305 306 306 306 306 305 305 305 306 306 306 305 306 306 306 306 307 307 307 307 307 306 306 306 306
316 313 311 313 313 311 313 312 312 313 314 315 316 313 309 307 307 309 311 311 312 312 311 309 309 309 309 308 308 309 308 309 309 308 308 308 308 309 309 309 311 311 310 310 310 311 311 311 311 308 308 307 302 299 300 301 302 302 301 302 304 304 305 305 305 305 305 305 305 305 306 306 305 305 305 306 306 306 307 307 307 307 307 306 306 306
315 314 313 313 312 311 312 312 312 312 311 311 312 312 312 309 307 308 309 309 311 311 311 310 310 310 309 308 308 308 308 309 308 308 308 308 307 307 307 308 309 309 309 309 308 309 309 309 310 309 308 308 306 302 299 298 300 301 300 302 303 303 304 304 304 304 304 304 304 305 306 306 305 305 305 306 306 306 307 307 307 307 306 306 306 306
312 315 314 312 311 311 311 312 312 311 309 309 308 308 309 309 308 308 308 308 309 310 309 310 311 310 308 308 308 307 308 309 309 308 308 308 307 306 307 308 309 307 307 307 307 307 307 307 308 308 308 307 307 306 300 297 298 299 300 302 302 302 303 303 303 303 303 303 304 305 306 305 305 305 305 305 306 306 306 307 307 306 306 306 306 306
309 312 312 311 311 310 310 311 311 310 310 309 308 308 307 308 307 306 307 308 308 309 309 309 310 309 308 308 308 307 308 309 308 308 308 307 307 307 308 308 307 306 306 306 306 306 306 306 306 306 306 306 306 305 300 297 298 299 299 301 301 302 303 302 302 302 302 303 305 305 305 305 305 305 305 305 305 306 306 306 306 306 306 306 306 306
308 310 311 311 311 310 311 313 312 311 310 309 308 308 306 307 307 306 307 307 307 309 309 309 309 308 307 307 308 307 308 307 307 307 307 307 307 309 310 308 307 307 306 306 306 306 305 305 305 304 304 305 304 301 298 298 298 297 298 299 301 302 302 300 301 302 302 303 304 304 304 304 304 304 305 305 305 306 306 306 306 306 306 306 306 306
307 309 313 312 311 312 311 311 310 309 311 309 308 309 308 307 307 306 306 307 307 308 308 309 309 308 307 308 308 307 307 307 307 307 307 307 307 309 309 308 307 307 306 306 306 306 305 305 304 304 304 304 302 300 299 299 298 298 299 300 301 301 300 299 300 301 302 303 303 304 304 304 304 304 304 305 305 305 306 305 305 306 305 305 305 305
306 309 312 310 313 315 308 304 306 309 310 308 308 312 311 308 307 307 307 306 306 306 307 308 308 307 308 308 307 307 307 307 307 307 307 308 309 309 309 308 307 306 306 306 306 305 305 304 303 303 302 301 300 300 300 300 299 299 300 300 300 300 299 299 299 300 301 302 302 303 303 303 304 304 304 304 305 305 304 305 304 304 304 304 304 304
307 308 308 307 311 312 305 304 308 310 308 306 307 310 309 307 307 307 306 306 306 306 306 307 307 307 307 307 307 307 307 306 307 307 308 310 310 309 308 307 306 306 305 305 304 304 304 303 304 304 301 299 299 299 299 299 299 299 299 298 298 298 297 298 298 299 300 301 301 302 303 303 303 303 303 303 303 303 303 303 303 303 303 303 304 304
308 307 308 308 309 308 306 307 309 309 306 305 306 307 307 307 306 306 306 306 305 305 306 306 306 306 306 306 306 306 306 307 307 306 307 309 309 307 306 306 305 305 305 304 304 304 304 302 301 301 300 298 298 298 298 298 299 298 297 297 297 296 296 297 297 298 299 300 300 301 302 302 302 302 302 302 302 302 302 302 302 302 302 302 302 302
307 307 307 307 308 308 308 308 307 306 306 306 306 306 306 306 307 307 306 305 306 305 304 305 305 305 305 306 305 306 307 307 306 306 307 308 308 306 306 306 305 306 306 305 304 302 298 297 296 295 296 296 296 296 296 297 297 296 295 295 295 295 296 296 296 296 297 298 299 300 301 302 302 301 301 301 301 301 301 301 301 301 301 301 301 301
305 307 307 307 307 307 307 307 307 307 307 306 306 306 305 304 307 308 305 304 306 307 305 304 305 305 305 305 305 306 307 306 306 307 306 305 309 311 310 309 310 311 311 309 306 300 292 290 292 293 294 295 294 293 294 294 295 295 294 293 293 294 294 293 292 293 295 297 298 300 301 301 301 301 301 301 301 301 300 301 301 301 301 301 300 299
305 306 306 307 307 307 307 307 307 308 307 306 305 307 307 305 306 309 308 305 306 308 309 306 305 305 305 305 305 306 307 307 306 306 305 308 315 317 316 314 309 304 300 296 295 295 289 286 288 291 290 290 289 290 292 293 294 293 291 290 291 291 289 288 288 290 292 294 296 298 299 300 301 300 300 300 299 299 299 299 299 299 299 299 298 296
304 305 306 306 307 307 307 307 307 307 307 306 306 307 305 304 305 308 308 307 307 308 308 306 305 306 305 305 306 306 307 306 304 306 312 314 309 304 303 305 302 298 294 288 285 285 284 283 287 288 284 283 285 288 291 292 291 289 287 287 287 286 284 284 285 287 289 292 293 295 296 297 298 298 298 298 297 297 298 298 298 298 297 297 296 294
303 304 304 306 307 307 308 308 308 307 306 306 307 306 302 302 305 307 307 309 310 308 306 305 306 306 305 306 306 305 305 306 305 311 317 312 308 302 293 289 288 288 287 285 283 282 281 280 282 282 280 281 284 287 290 290 288 284 283 284 283 281 281 282 284 286 288 290 291 292 292 293 295 295 295 295 296 295 295 296 296 296 295 294 293 291
304 304 304 305 306 307 307 308 307 308 307 306 307 307 305 304 305 305 305 309 311 309 306 306 306 305 305 306 306 305 305 305 304 310 315 312 312 308 296 288 287 286 284 283 282 281 280 280 279 279 279 281 283 284 287 287 284 282 282 281 280 280 282 283 285 287 288 288 289 289 289 290 291 293 293 293 294 294 293 293 294 294 293 292 290 288
305 305 305 305 305 306 307 308 308 310 309 306 306 305 303 304 307 306 304 307 310 309 307 307 307 305 305 306 307 306 306 305 305 308 313 314 311 303 293 289 289 287 284 282 281 280 280 280 279 278 278 280 282 283 284 284 282 280 280 279 279 281 283 285 286 287 287 287 287 287 287 288 289 290 291 291 292 292 291 290 291 291 291 290 288 285
306 306 306 306 306 307 307 307 308 309 307 306 307 306 304 304 305 306 305 305 308 309 309 307 307 306 303 304 305 305 304 305 305 306 309 311 308 300 292 287 285 283 282 281 280 279 279 279 278 277 277 279 280 281 281 281 280 279 279 278 278 280 283 285 286 287 286 286 286 285 286 286 287 288 289 289 291 291 289 289 289 288 288 288 286 283
306 306 306 307 306 306 307 307 307 308 307 305 305 307 307 307 305 305 304 303 304 307 308 307 306 305 303 303 304 305 304 305 305 305 306 307 304 296 290 286 283 282 281 280 279 279 278 278 277 276 276 276 278 279 279 279 280 279 277 277 278 279 280 282 284 284 283 283 283 283 284 285 285 285 286 287 288 288 287 287 287 286 285 286 284 281
305 306 306 307 307 306 306 306 306 306 306 305 305 306 307 308 307 306 305 304 304 305 306 306 306 305 305 304 304 304 305 304 304 306 305 303 297 291 287 284 282 280 280 279 279 278 277 277 276 276 275 275 275 276 277 277 278 277 277 277 278 279 279 280 281 280 278 279 279 280 281 282 281 282 282 283 284 284 283 284 284 282 282 282 281 279
305 305 304 305 306 306 306 306 306 306 306 306 305 305 304 305 306 306 306 305 304 304 305 305 305 305 305 305 304 304 305 303 303 304 303 298 293 288 285 283 281 280 279 279 278 277 277 277 276 275 275 274 273 273 274 274 275 275 276 277 278 278 279 278 277 276 276 277 277 277 278 279 278 278 279 279 280 280 280 281 281 280 279 278 277 276
306 305 304 304 305 305 306 306 305 306 305 305 306 306 304 304 304 304 304 304 303 304 304 303 301 302 304 304 303 303 303 301 301 302 301 296 291 286 283 282 280 279 278 277 277 277 277 276 275 274 274 273 272 272 272 272 273 274 275 276 277 278 278 277 276 275 275 276 276 276 276 277 276 277 277 277 277 278 278 278 279 278 277 277 277 276
303 301 303 305 304 304 305 303 302 304 305 305 304 301 296 294 295 298 300 300 301 301 301 298 295 296 298 299 298 300 302 300 297 297 296 292 287 283 281 280 278 277 276 275 274 274 274 274 273 273 272 271 270 270 271 271 272 273 275 275 276 278 277 275 274 275 275 275 276 276 275 275 275 275 276 276 276 276 276 276 276 276 276 277 278 278
299 298 301 304 305 307 302 293 289 294 300 299 295 289 285 284 285 289 293 293 292 292 293 294 293 291 290 290 289 293 298 297 293 292 291 287 283 281 279 278 276 274 273 273 272 271 271 271 270 270 270 269 269 269 270 270 272 273 274 275 276 277 276 274 273 273 273 274 274 274 275 275 274 274 275 275 274 274 274 274 275 275 275 275 276 277
289 288 290 294 297 299 292 281 279 284 289 290 288 283 281 281 282 283 285 284 283 284 285 288 291 291 289 286 284 286 291 291 289 289 288 283 280 278 277 276 275 274 272 272 271 270 269 269 269 268 268 268 268 268 269 270 271 272 273 274 275 276 276 274 272 272 272 272 273 273 274 274 274 274 274 273 273 273 273 272 273 273 273 274 274 274
Wind_Speed
3 2 2 5 7 8 9 9 9 3 3 1 1 2 5 6 8 9 10 8 2 3 10 10 12 15 16 18 18 17 13 10 14 15 14 14 11 9 11 13 13 14 14 11 11 17 19 21 22 21 23 23 22 24 24 24 24 26 26 26 27 27 28 29 30 30 30 30 28 26 28 30 30 31 31 31 32 33 33 33 32 32 31 30 29 29
2 3 7 10 10 8 8 8 7 5 4 4 3 5 6 6 10 12 10 9 2 4 8 8 9 14 17 19 19 17 13 13 14 13 15 15 11 10 12 14 14 12 11 9 11 13 14 17 19 18 19 18 19 20 21 23 23 23 24 24 25 25 27 30 31 32 32 33 32 30 31 33 32 32 33 33 34 34 33 33 33 32 31 30 29 29
1 4 11 11 7 5 5 6 6 6 7 6 4 4 6 4 7 10 7 5 1 3 7 9 9 14 19 19 19 16 12 13 13 12 13 14 10 9 10 11 11 11 10 10 11 10 9 12 13 12 10 11 13 12 13 18 19 19 20 22 23 24 26 29 31 32 32 32 33 30 28 29 30 30 32 33 32 33 33 33 33 32 31 30 30 29
3 6 10 6 6 7 3 3 5 4 4 5 4 3 6 5 3 6 4 4 4 3 7 10 9 12 15 13 13 13 10 10 11 10 11 10 10 10 9 9 9 10 11 11 11 9 7 8 8 7 5 5 6 5 7 11 13 15 18 20 22 23 25 27 29 30 30 28 28 26 21 21 24 23 26 28 27 29 31 32 33 32 32 31 30 30
7 7 2 4 7 8 4 2 5 4 3 4 6 6 7 8 6 8 6 7 8 5 3 7 8 8 7 7 10 9 6 7 8 8 9 9 9 9 8 9 9 10 10 10 10 8 6 6 6 6 4 3 4 4 5 6 8 10 13 16 20 21 22 24 26 28 28 25 24 23 16 14 17 16 18 23 24 27 30 32 33 33 32 31 30 30
10 7 3 3 3 6 5 4 5 6 3 4 6 11 12 10 9 9 8 7 6 5 3 5 7 7 5 7 11 8 4 7 7 6 9 10 8 7 8 9 9 9 9 9 9 8 6 6 6 6 6 5 3 3 3 3 4 6 9 13 17 19 20 22 24 26 27 26 25 25 21 18 18 16 19 25 28 29 31 31 31 31 31 30 30 30
5 2 3 4 4 6 5 5 5 7 3 4 4 9 11 9 7 7 6 3 2 6 4 4 1 6 9 11 9 4 6 12 10 6 8 9 7 6 7 8 7 7 7 7 7 7 6 6 6 6 7 5 3 2 2 3 4 5 7 10 14 17 19 20 22 25 26 26 26 27 27 25 24 22 23 27 28 28 29 29 29 29 30 30 30 31
2 1 2 2 4 5 4 5 5 7 5 4 3 3 5 5 5 5 3 2 3 5 5 2 4 3 8 10 6 2 8 15 13 8 6 6 6 5 6 6 6 7 6 6 6 5 6 6 5 6 7 5 3 2 3 4 4 5 7 9 12 14 16 18 21 24 26 27 27 28 27 26 26 24 23 24 24 24 25 26 27 28 29 30 31 31
2 2 3 4 3 3 4 4 7 9 5 5 2 2 2 4 4 4 3 3 2 3 5 2 4 1 6 9 6 4 7 12 11 9 7 7 6 6 5 5 4 5 5 5 5 5 5 5 5 7 7 5 3 3 5 5 5 6 7 8 11 13 15 17 19 22 24 26 26 26 26 24 23 22 19 18 20 21 22 24 25 26 28 29 30 31
0 2 5 6 3 5 5 3 5 9 6 3 2 2 1 2 1 1 2 2 1 2 6 4 3 2 6 9 7 3 2 7 7 6 7 6 6 6 6 6 5 4 3 3 4 5 5 5 5 5 5 3 2 3 5 5 5 6 7 8 9 11 13 15 17 20 23 24 24 24 25 23 21 20 17 15 17 19 20 22 24 25 26 27 29 30
3 2 1 3 4 5 4 2 2 5 4 0 3 2 3 3 2 2 1 1 1 3 6 4 2 2 3 7 5 3 3 4 3 5 7 7 8 7 7 6 5 5 5 5 4 5 5 5 4 2 2 1 1 2 4 5 4 5 6 7 8 9 11 13 15 18 20 22 23 24 24 24 23 21 19 17 17 19 20 22 23 24 25 26 28 30
4 2 2 2 2 4 4 3 0 0 2 2 3 3 4 4 3 3 3 2 0 5 4 3 2 3 4 7 5 5 6 5 3 6 8 9 9 8 7 6 5 5 5 5 5 5 4 4 3 1 2 1 2 3 4 5 5 5 6 7 9 10 11 12 13 16 18 21 23 24 24 25 24 23 22 21 21 21 22 22 22 23 24 25 27 29
4 5 3 1 1 4 5 2 2 3 4 4 2 3 3 4 3 3 3 1 3 5 3 2 2 2 6 10 11 14 16 12 7 8 9 10 9 8 8 7 5 5 5 5 6 5 4 4 4 2 2 2 2 4 5 6 6 7 7 8 10 11 11 12 13 14 17 20 23 24 25 25 24 24 23 23 22 22 22 22 23 24 25 26 27 28
4 4 0 2 1 2 6 5 2 1 2 4 4 3 2 0 2 3 3 2 3 4 3 3 2 3 5 8 11 14 16 13 8 7 9 9 10 9 8 7 6 6 6 6 6 6 5 5 4 3 3 4 5 7 8 9 9 9 9 9 10 10 11 12 14 15 17 20 21 23 24 24 23 23 23 23 22 22 22 23 23 24 26 27 28 29
2 5 2 3 1 1 4 5 4 5 3 3 5 4 4 4 3 3 3 2 4 4 4 3 1 3 3 4 7 10 11 10 7 8 8 8 9 7 6 7 7 8 7 6 6 6 7 6 4 3 3 5 7 7 8 9 10 10 10 10 10 11 12 14 15 17 18 19 20 21 22 23 22 22 22 22 22 22 22 23 23 24 25 26 27 27
2 5 4 1 1 1 1 3 2 6 3 2 3 5 2 5 4 2 3 3 2 4 4 2 3 5 4 9 14 12 11 10 8 7 7 8 8 5 7 8 7 8 8 6 6 7 7 6 4 3 4 7 8 6 7 8 10 11 11 11 12 13 13 15 16 17 18 18 19 20 21 21 21 21 21 21 22 22 22 23 24 24 25 25 25 25
2 4 4 2 1 1 1 3 1 1 2 1 3 3 4 4 5 2 2 1 2 2 4 1 4 5 4 9 12 8 8 9 7 7 6 8 7 5 7 7 6 7 8 7 6 6 7 5 4 4 6 8 8 7 7 8 9 12 12 13 14 14 14 15 16 16 17 17 18 18 19 20 20 21 22 22 22 22 22 23 23 24 24 24 24 24
3 3 3 2 1 2 1 1 2 2 2 3 2 4 3 2 4 3 1 4 3 2 5 2 5 5 1 4 8 8 9 10 8 7 7 8 5 4 7 6 6 7 7 7 6 6 6 6 5 5 7 10 9 8 8 8 9 11 12 14 14 14 13 13 14 15 15 16 17 18 19 20 21 22 22 22 22 22 22 23 23 23 23 23 23 23
3 2 4 1 2 3 3 2 0 3 3 3 2 2 2 3 1 2 1 1 0 3 5 4 6 5 4 4 6 8 11 11 10 9 8 8 7 6 7 7 7 7 6 6 6 6 6 6 6 6 7 10 10 9 9 8 8 9 10 12 12 12 11 10 11 12 14 15 17 18 19 20 21 22 22 22 22 22 23 23 23 23 23 23 23 23
2 2 4 1 2 2 3 1 3 1 2 2 1 3 2 2 3 3 2 3 3 2 3 5 6 4 6 6 5 9 10 8 9 9 8 8 8 7 6 6 7 6 5 6 6 6 6 6 7 7 7 9 10 10 10 9 9 10 10 11 12 12 11 11 12 12 13 15 16 18 19 20 21 21 21 21 22 22 23 22 22 22 22 22 22 23
1 2 3 3 3 0 2 3 5 6 4 2 1 1 1 0 1 0 1 2 4 3 1 2 6 8 6 5 7 10 9 7 7 7 8 9 8 8 6 5 6 6 6 6 6 6 6 6 6 7 9 11 11 11 11 11 11 11 11 12 13 13 14 15 15 14 14 15 16 18 19 20 21 21 21 21 22 22 22 21 21 21 21 22 22 23
3 3 3 2 1 3 5 4 3 5 5 5 5 5 5 4 3 1 3 1 3 3 4 2 5 11 6 4 7 8 6 7 6 6 8 8 8 8 7 4 5 6 7 6 6 6 6 6 6 7 9 11 11 13 13 13 13 13 14 14 14 15 17 18 18 17 16 15 16 18 18 19 20 21 21 22 22 22 22 21 21 21 21 22 23 23
3 3 2 3 4 5 6 3 1 3 2 3 4 4 5 4 4 4 4 3 2 2 2 4 2 10 5 4 5 4 4 6 5 5 6 8 8 8 8 7 5 5 7 7 7 7 6 6 6 6 8 10 11 13 14 14 14 15 17 16 15 16 19 20 20 19 18 18 18 18 18 19 20 20 21 21 22 22 21 21 21 21 22 23 23 23
2 3 2 4 4 2 4 3 1 1 2 2 4 3 5 5 3 4 4 3 3 3 3 3 3 10 6 3 5 5 4 5 5 5 6 7 8 8 8 9 7 6 6 7 7 7 6 7 6 6 7 8 9 11 13 15 16 17 19 18 18 19 20 21 21 21 20 20 19 18 19 20 20 20 21 21 21 21 21 21 21 21 23 23 23 23
4 3 3 1 4 5 5 4 2 3 1 3 4 4 6 7 4 3 1 1 1 5 7 5 6 12 5 2 3 4 3 5 6 5 5 5 6 8 8 8 7 7 7 7 7 7 6 7 6 6 7 7 8 11 14 17 19 20 21 21 22 22 22 22 21 22 22 21 20 19 19 20 19 20 20 20 21 21 21 21 21 22 22 23 23 24
5 4 5 5 4 6 4 3 4 3 2 2 4 5 8 11 10 5 2 3 4 6 6 6 10 15 9 6 9 8 6 9 10 5 4 6 6 7 8 8 8 8 8 9 9 8 7 7 7 7 7 7 8 12 15 17 20 21 23 24 25 24 24 22 21 22 22 22 21 20 20 20 20 21 21 20 20 21 21 20 20 21 22 23 24 23
3 2 6 8 9 9 7 7 6 4 4 4 6 9 10 12 13 7 3 4 6 5 5 11 15 18 19 17 15 13 11 10 10 9 7 7 7 8 9 9 9 8 8 9 8 8 9 10 10 10 8 7 9 14 17 17 18 20 22 25 26 25 24 23 22 22 23 23 22 21 21 21 22 22 21 21 21 20 20 20 20 21 21 21 22 23
3 3 7 10 13 11 9 9 6 6 6 8 9 10 11 11 13 11 8 8 7 5 9 14 14 17 26 24 17 16 15 9 9 12 10 9 10 11 10 9 9 10 11 10 10 11 12 12 12 11 10 9 10 13 17 18 19 20 21 24 26 25 25 24 22 22 23 23 23 23 23 22 22 22 22 21 21 21 20 20 20 19 19 20 21 22
3 4 6 8 12 12 9 9 6 5 6 6 8 10 11 12 15 16 16 13 10 9 15 14 12 18 26 24 18 17 13 9 11 12 10 10 12 11 9 8 10 12 13 13 13 12 12 12 12 12 13 12 10 11 14 16 19 20 21 24 26 26 26 24 22 23 23 23 25 24 23 23 23 22 21 21 21 20 20 19 19 18 18 19 19 19
3 3 4 7 9 10 9 10 8 7 9 10 11 12 10 13 16 18 18 17 16 20 20 15 17 22 21 20 20 15 8 7 10 9 10 13 13 9 7 9 12 13 13 14 14 13 12 12 12 13 14 15 13 12 11 13 17 19 21 24 25 26 26 24 22 24 24 25 26 24 23 23 22 20 20 20 20 20 19 18 17 17 17 16 16 16
3 3 2 4 4 7 7 8 9 10 12 17 19 15 11 11 13 14 15 14 16 21 19 15 20 23 17 17 19 15 8 9 12 14 17 20 14 9 9 12 14 14 15 16 16 14 12 11 13 14 15 16 16 13 11 15 18 19 21 23 25 26 25 24 24 24 25 26 26 23 22 22 21 19 19 19 19 18 18 17 16 16 15 15 15 15
4 3 2 5 2 6 5 7 11 11 12 20 24 19 14 12 11 12 13 13 16 18 16 15 17 18 16 16 17 15 12 13 16 18 20 20 12 8 11 14 14 15 17 17 15 12 12 13 15 16 16 16 16 13 14 18 18 18 20 23 24 24 22 22 24 25 26 25 23 21 21 21 20 19 19 19 18 18 17 17 16 16 16 15 15 15
5 4 2 3 4 6 4 5 7 5 8 16 17 13 16 18 16 15 15 16 18 16 14 15 17 17 14 13 15 18 16 15 17 18 19 18 11 9 13 15 15 16 16 14 12 12 14 15 14 14 15 14 14 16 19 20 18 19 22 23 22 20 19 21 24 25 24 22 20 20 20 20 19 19 19 19 18 18 18 17 17 17 17 17 16 16
4 5 3 3 3 5 6 2 2 4 10 12 6 6 16 20 19 20 20 19 19 18 17 18 18 15 12 11 15 21 20 17 19 19 14 10 8 9 12 13 14 15 13 11 12 13 14 14 12 11 12 15 18 21 22 19 17 19 20 19 19 19 20 22 23 22 21 20 19 18 19 18 19 19 19 19 19 18 19 18 18 18 17 17 17 17
5 5 3 2 2 3 1 4 2 11 11 4 4 1 8 12 14 18 20 19 20 21 21 23 22 18 15 16 16 19 21 21 23 21 11 7 8 10 10 11 11 11 12 13 14 15 14 13 12 10 11 14 18 19 17 16 16 16 15 15 16 17 19 21 21 19 17 17 16 16 17 17 18 18 17 17 18 18 18 18 18 18 18 18 18 18
7 5 3 2 2 1 1 5 9 12 9 9 7 1 4 1 2 5 11 17 18 18 19 23 24 21 19 19 18 19 22 20 20 20 10 8 11 11 10 11 11 12 15 16 15 15 13 10 9 10 11 14 15 14 14 14 14 13 12 12 14 16 17 18 17 15 15 15 15 16 17 17 17 17 16 16 17 17 17 17 17 17 17 18 18 18
9 6 3 3 4 3 3 5 7 11 17 18 13 7 7 6 7 6 9 16 15 16 17 19 20 21 19 20 22 20 15 12 14 18 14 10 13 13 11 12 13 12 13 12 11 10 10 9 7 8 9 10 9 8 9 10 11 11 10 10 12 14 15 15 15 15 15 15 16 17 18 19 19 18 18 18 17 17 16 16 17 17 18 19 20 20
9 8 6 6 5 4 4 7 6 11 16 10 4 5 8 11 10 7 6 14 9 13 15 16 19 22 21 21 22 13 4 6 10 15 17 12 7 6 7 8 6 4 4 5 6 6 8 9 6 5 4 2 2 4 4 6 9 10 10 9 11 11 11 11 11 13 15 15 16 17 19 20 21 21 21 20 19 19 18 18 18 18 18 20 22 21
10 8 7 7 6 5 7 9 9 12 14 5 4 2 4 9 9 8 2 13 7 14 16 19 20 23 19 17 15 5 3 6 10 13 15 9 2 2 2 2 2 2 2 3 4 4 6 7 6 6 7 6 6 5 1 5 9 11 11 10 11 11 10 9 9 10 13 14 15 17 18 20 22 22 23 21 20 20 20 19 20 20 20 21 22 23
9 8 7 10 12 11 10 10 8 9 12 6 6 4 2 7 10 10 4 13 8 14 16 17 18 19 15 12 9 6 6 11 12 9 7 1 4 3 1 1 2 2 2 3 4 4 5 6 6 7 8 9 8 5 5 9 11 12 11 12 13 12 10 9 9 11 13 14 14 16 17 19 21 22 22 22 22 21 21 21 21 22 22 23 24 25
6 7 8 11 14 12 12 12 8 8 13 9 6 4 4 8 7 7 10 7 7 10 9 9 14 16 12 9 7 6 10 14 12 5 2 5 3 2 2 2 2 3 3 4 4 4 7 9 10 9 9 9 8 5 8 13 13 12 12 14 13 10 9 10 11 13 15 15 15 15 16 17 19 21 22 22 23 22 22 22 23 24 25 26 26 26
5 5 6 9 11 10 11 11 7 10 15 9 6 6 8 7 6 11 6 2 5 7 5 5 10 12 8 7 7 8 12 13 10 5 2 3 1 1 2 1 3 4 4 5 6 5 6 8 10 10 11 12 10 6 7 14 14 11 12 13 11 10 12 14 14 16 16 16 17 17 17 18 19 21 22 22 23 24 23 22 23 25 26 27 27 28
8 6 5 8 10 8 8 8 7 11 11 9 11 5 7 12 14 8 1 1 2 3 3 5 7 7 7 7 8 10 11 10 9 6 2 2 1 2 2 2 3 3 3 5 5 5 4 4 5 8 12 13 11 8 6 10 12 11 11 11 10 13 16 17 17 17 17 17 18 17 17 19 20 21 22 21 22 24 24 23 23 25 26 27 28 28
8 8 6 7 7 7 8 9 11 12 8 12 14 9 10 14 11 2 1 3 2 1 3 5 5 6 6 6 8 9 8 8 9 6 2 1 1 2 2 3 4 3 3 3 2 4 4 4 5 8 12 13 12 10 7 6 10 12 11 9 10 13 16 18 19 19 19 19 19 19 19 19 20 21 21 21 22 24 24 24 24 24 24 26 27 27
10 11 9 7 7 7 9 9 9 10 7 7 9 8 6 9 9 5 5 7 5 2 4 3 4 6 3 5 7 7 6 7 7 5 3 2 2 3 3 3 3 3 3 4 5 6 6 6 6 8 10 13 13 11 8 6 10 14 12 9 10 11 13 16 18 19 20 20 20 20 21 21 21 21 21 20 21 22 23 23 24 23 23 24 25 25
9 10 8 6 6 8 10 10 12 12 7 5 6 8 7 6 5 5 8 10 8 7 5 4 4 4 2 4 5 4 5 7 6 4 2 3 2 3 3 3 3 3 3 4 6 7 6 6 7 6 8 11 12 12 9 7 10 13 12 13 14 13 12 14 17 19 20 20 19 20 21 22 23 22 22 21 21 21 21 21 22 22 21 22 23 22
6 8 8 7 7 9 10 12 15 17 10 5 6 10 10 8 6 5 7 7 7 7 5 4 4 2 2 3 4 5 7 6 5 5 3 3 2 2 4 3 3 3 4 4 6 6 5 5 4 5 6 7 9 10 9 8 9 11 14 16 16 15 15 15 17 18 18 18 18 19 21 23 24 23 23 23 22 22 22 21 21 21 20 20 21 20
4 5 7 10 10 11 12 12 12 12 9 6 7 8 8 9 8 7 7 6 5 3 3 2 3 3 4 4 4 5 7 5 5 5 2 2 2 3 4 3 4 4 4 5 6 6 5 4 3 5 6 6 8 9 9 8 8 9 13 15 16 18 19 19 19 19 18 18 19 19 20 22 23 24 25 25 24 25 24 22 22 22 19 17 18 19
5 6 6 7 9 10 12 11 10 10 10 8 6 7 9 9 9 9 8 6 5 4 3 2 1 1 2 2 3 4 5 4 2 1 1 2 3 4 4 4 5 5 5 7 8 9 8 6 5 6 7 6 7 8 8 9 8 8 11 14 16 19 21 21 20 19 18 19 20 20 21 22 23 25 28 29 29 28 26 23 23 24 22 18 16 18
5 6 6 7 7 6 3 3 7 6 8 6 8 11 12 11 11 12 11 9 8 7 6 5 4 1 1 2 1 3 5 3 1 3 3 3 4 5 5 6 6 5 6 7 10 12 12 10 8 8 8 7 7 7 8 9 9 9 10 13 15 19 22 22 20 18 17 18 18 19 20 21 22 23 27 30 32 32 31 28 26 26 25 23 19 18
3 4 5 5 6 5 4 7 6 4 6 6 8 10 11 12 12 12 11 10 9 9 8 6 5 4 2 3 3 3 3 2 1 4 5 5 5 6 7 7 6 6 6 7 8 9 10 9 9 9 9 8 8 9 9 9 9 9 10 12 15 19 22 23 21 19 18 17 17 18 19 20 20 21 23 25 28 30 32 31 30 28 27 26 24 23
Wind_Direction
119 132 217 222 220 211 205 205 218 256 25 197 225 274 267 277 278 269 271 272 178 250 273 260 263 274 280 283 281 279 274 253 252 256 260 262 257 250 248 250 253 252 256 267 269 266 266 265 266 269 267 262 256 252 247 244 242 239 235 230 228 227 223 218 213 210 208 204 203 206 210 213 216 218 220 222 224 226 228 229 229 228 228 228 228 228
100 173 238 232 221 211 198 200 223 256 280 272 278 294 287 272 277 276 279 290 215 185 266 268 279 286 282 282 280 279 278 265 257 254 258 261 255 248 247 250 254 256 263 274 273 269 268 272 276 273 266 255 248 249 243 238 238 235 230 228 227 223 217 215 212 209 207 206 206 208 211 213 215 217 219 221 224 226 227 227 227 228 228 228 227 227
222 229 252 243 203 181 185 183 198 224 243 261 266 291 290 273 290 287 280 311 356 172 271 293 303 290 281 279 278 277 270 265 260 247 249 258 256 249 245 248 253 261 269 269 270 272 273 284 285 270 255 241 238 243 237 231 231 228 225 224 223 220 216 213 212 210 209 211 212 212 213 214 215 218 221 223 225 225 224 225 226 227 227 226 226 226
224 243 256 248 148 154 200 186 177 207 234 236 229 253 272 273 322 286 282 349 326 254 271 295 301 282 279 281 278 271 253 255 264 254 250 252 250 248 247 253 251 252 260 264 268 274 285 298 287 256 234 220 217 214 212 212 216 219 220 220 218 217 216 212 211 211 211 210 208 208 213 215 214 217 221 221 224 224 223 224 224 224 225 224 225 224
243 238 217 87 118 155 197 211 173 199 253 234 213 213 248 260 240 242 284 336 315 290 282 311 309 279 277 295 290 281 250 254 269 270 270 259 248 248 249 254 247 241 248 255 265 276 297 301 279 258 243 216 200 183 179 189 204 215 215 216 217 216 216 213 211 209 207 204 199 198 200 202 206 211 213 213 217 221 221 221 220 220 222 223 224 224
260 244 156 114 132 155 184 231 198 186 241 283 226 212 226 244 243 252 298 335 336 320 337 14 340 287 283 293 285 289 301 290 274 255 268 270 266 262 255 252 245 241 244 249 262 275 293 291 276 275 261 236 218 169 156 171 189 211 215 212 213 214 214 212 210 207 204 201 197 192 187 185 189 195 201 207 212 215 215 217 217 219 221 222 223 224
268 267 151 185 186 165 190 247 226 174 187 297 249 210 217 231 249 265 283 315 329 290 284 76 58 275 300 300 275 276 315 301 290 264 261 268 271 265 261 262 252 248 250 253 262 266 273 274 269 270 261 243 230 154 159 185 185 200 210 209 211 211 211 209 207 206 203 201 200 198 197 196 195 198 206 213 216 217 217 217 218 219 221 222 222 223
195 77 81 150 158 170 201 245 220 162 152 263 257 166 177 204 232 231 221 229 239 282 294 137 155 256 297 290 265 302 314 301 299 297 281 278 285 276 265 266 256 248 249 254 263 259 251 255 250 251 255 249 242 210 189 193 199 206 205 206 209 209 209 208 206 205 205 204 203 203 205 206 207 209 214 217 218 219 219 217 217 219 219 220 221 222
134 156 186 153 133 183 210 225 196 166 171 255 250 107 133 178 206 190 185 251 268 340 312 221 155 242 276 276 287 335 307 292 298 307 306 311 318 316 311 304 286 260 246 237 243 249 245 242 238 242 252 255 247 230 205 192 194 206 207 203 204 206 207 207 206 206 207 208 208 207 207 209 213 216 220 219 217 216 216 214 216 217 218 219 219 221
330 225 189 150 152 210 217 229 188 175 198 256 117 98 34 92 111 110 168 260 3 334 280 242 174 241 273 282 299 339 270 260 283 304 301 300 303 319 335 332 324 321 301 264 243 246 246 243 245 251 256 257 249 224 202 191 188 193 204 204 203 205 206 207 208 208 208 209 211 211 211 211 213 214 216 216 213 212 212 212 213 215 217 218 218 219
278 300 162 165 188 192 175 143 180 184 195 62 75 45 345 9 26 27 94 68 33 263 272 272 213 205 282 284 267 237 230 239 288 312 301 298 303 320 336 331 327 332 323 307 280 262 262 261 259 270 272 244 114 171 180 182 185 183 192 202 205 207 207 208 209 210 211 212 213 215 216 215 214 212 209 206 205 205 206 208 211 214 217 218 219 219
279 256 220 235 186 138 118 101 9 55 115 98 65 37 344 329 356 10 1 42 187 248 272 296 254 181 233 266 257 252 267 262 257 280 285 291 299 311 322 321 320 319 308 301 286 274 291 301 287 303 322 334 126 154 172 178 183 183 189 195 200 205 208 210 211 212 214 214 216 218 219 219 217 214 210 207 206 205 205 207 210 213 214 216 218 218
273 232 211 234 187 136 130 126 339 10 65 106 102 66 20 330 339 339 310 231 228 254 271 283 261 205 236 261 273 277 279 275 253 246 257 269 281 293 303 306 312 314 304 291 281 276 283 288 284 293 304 289 215 188 186 191 195 194 195 199 204 207 210 212 215 216 217 217 219 219 220 221 220 218 216 214 213 212 210 211 210 210 211 213 214 215
295 294 219 158 258 167 158 177 223 248 116 138 152 136 135 192 312 282 273 285 277 270 277 281 267 262 269 267 259 259 268 277 275 255 248 255 266 272 282 295 305 302 290 276 271 276 274 265 266 269 264 261 243 216 202 200 203 202 202 206 212 214 214 217 219 219 220 220 221 221 222 222 221 220 220 220 220 219 217 215 214 215 215 214 216 217
234 298 268 169 257 292 193 208 177 144 141 173 161 135 155 169 181 249 243 242 281 292 294 308 285 215 224 272 265 254 261 272 271 258 248 249 255 259 273 287 291 284 275 264 259 265 267 263 267 277 271 263 254 235 215 207 207 212 216 218 221 221 219 219 220 219 220 221 221 222 223 224 224 225 225 226 226 225 223 220 219 220 220 220 222 224
173 265 270 247 263 126 235 266 124 115 135 219 137 111 180 186 163 232 221 185 259 309 292 263 240 221 226 285 290 287 284 284 283 281 272 263 266 273 273 268 262 263 263 256 249 256 264 263 264 270 267 264 261 251 234 220 216 221 225 227 228 227 223 221 221 221 222 223 223 224 224 226 227 228 228 228 228 227 227 225 224 223 224 226 227 228
149 271 291 348 300 118 184 265 343 103 199 186 128 164 216 178 128 133 267 338 46 295 278 253 262 288 320 293 291 316 321 305 307 315 296 277 279 278 266 262 254 253 256 254 245 250 263 264 256 251 249 255 258 252 240 229 223 225 226 226 226 225 222 222 222 224 225 225 226 228 229 230 230 230 231 230 229 229 228 227 227 226 227 228 228 228
159 268 296 82 197 280 222 190 8 7 101 117 174 213 197 122 81 91 267 339 30 261 277 299 269 285 340 288 306 338 324 301 302 314 309 302 308 290 276 279 271 257 258 269 265 258 262 261 258 252 246 248 249 249 245 236 229 228 226 225 225 224 224 225 227 229 231 231 232 234 233 233 234 233 233 233 232 231 228 226 226 225 227 228 228 228
156 258 301 80 194 292 360 87 25 356 54 109 205 229 110 129 129 94 167 257 288 264 286 303 291 269 198 226 288 294 288 293 302 313 320 316 318 313 302 300 292 282 273 272 268 261 256 248 248 246 244 247 248 251 254 250 245 242 238 236 235 236 238 239 239 237 238 238 238 239 238 236 236 235 234 234 232 230 227 226 225 225 226 227 227 227
128 214 286 310 245 298 13 119 195 234 24 32 324 330 2 157 170 156 153 166 179 246 291 311 314 274 214 209 223 247 263 279 293 306 313 303 297 298 298 296 294 290 273 263 261 260 257 249 249 248 249 254 255 258 261 262 261 258 257 255 252 250 249 248 246 243 242 240 239 239 238 237 236 235 235 233 231 230 228 228 227 227 228 227 227 226
112 206 254 299 313 180 199 213 192 185 170 149 213 247 277 220 132 164 202 140 140 163 215 307 304 275 241 194 204 232 250 249 260 284 291 292 295 295 292 284 284 284 272 261 258 261 263 264 267 269 269 268 267 266 264 264 267 267 264 261 257 255 252 249 248 246 245 243 239 238 238 238 236 235 234 233 232 231 231 231 230 230 230 229 228 226
181 188 189 242 271 197 228 251 214 201 182 168 191 193 187 175 121 116 262 265 107 147 178 161 288 281 264 190 213 233 242 243 246 255 273 289 292 293 296 282 269 278 280 278 275 277 278 277 281 284 279 271 265 264 264 263 266 266 265 262 258 256 253 250 247 247 248 247 242 240 240 239 237 234 233 231 231 232 231 231 231 231 230 228 228 227
147 122 145 232 229 212 244 277 230 212 169 165 205 191 176 177 146 155 219 240 141 151 157 114 270 278 261 192 223 244 238 250 255 243 267 294 294 296 308 310 300 277 275 285 288 285 280 273 276 283 280 273 266 265 264 263 261 260 262 264 260 256 255 253 248 245 246 245 243 243 241 238 235 233 231 230 230 232 232 232 231 230 228 228 228 227
128 123 165 275 294 305 312 320 348 37 85 186 233 188 177 203 191 168 187 184 157 174 153 111 249 262 255 195 223 234 232 255 275 256 256 289 305 307 307 308 314 304 291 294 288 282 282 278 277 278 274 272 269 268 268 266 263 258 257 257 255 254 255 255 250 244 241 240 241 241 238 236 233 230 229 229 231 233 233 233 231 228 228 227 227 226
185 172 157 251 321 329 337 340 321 326 309 213 232 204 200 205 163 107 129 147 194 212 175 150 246 254 259 13 267 253 276 283 274 241 225 257 296 305 303 302 305 307 308 302 290 286 288 284 277 270 268 268 265 264 263 261 259 256 252 249 248 250 254 254 249 243 239 237 237 236 236 236 233 230 229 230 232 233 232 232 230 228 227 225 224 224
179 188 161 155 214 241 259 248 236 245 194 202 231 212 207 201 180 161 161 173 225 238 182 175 242 256 269 287 272 268 280 281 276 263 247 256 268 283 292 294 295 300 300 296 294 294 290 283 272 260 257 262 264 261 259 256 254 254 252 248 245 246 249 251 248 242 238 235 234 234 234 235 233 232 231 230 232 232 230 229 228 227 225 223 222 222
128 216 194 188 211 219 223 231 212 146 142 191 214 207 202 202 194 182 148 172 207 227 216 219 240 263 272 265 264 268 267 271 284 290 285 277 272 270 269 274 284 288 281 281 286 288 287 283 277 269 258 252 257 259 259 258 256 254 252 250 248 246 247 247 245 240 236 233 232 232 233 234 235 235 233 231 230 229 228 226 225 225 223 221 220 219
103 245 216 209 226 228 229 237 209 161 193 209 206 208 203 197 195 193 202 205 190 202 241 236 233 257 266 263 262 269 270 276 282 278 276 272 267 264 263 272 283 281 275 275 275 277 279 279 281 283 278 267 260 259 260 261 260 257 254 253 251 249 248 246 240 236 233 231 229 230 232 234 236 235 233 231 228 226 225 222 222 222 220 218 217 217
151 234 211 206 237 242 243 253 235 208 233 225 209 212 202 193 193 200 214 213 190 213 243 242 226 238 255 263 263 263 270 276 269 267 270 266 260 261 268 276 273 269 268 270 270 268 269 271 275 278 278 277 269 261 260 258 257 255 253 255 254 250 247 244 237 232 230 227 227 230 231 232 233 232 231 228 226 224 222 220 218 217 215 215 214 214
179 240 195 194 241 252 245 256 259 253 264 260 241 225 205 201 200 202 214 215 214 231 242 247 249 247 251 262 265 265 268 260 261 271 273 264 259 257 263 263 258 258 261 262 262 260 257 261 267 270 273 276 271 264 258 253 252 250 250 254 256 250 244 239 233 228 224 224 228 230 228 228 228 227 225 224 223 222 219 215 213 210 209 208 208 208
207 247 153 153 245 259 235 245 258 253 258 262 255 238 213 209 211 213 220 216 222 240 246 250 258 260 258 261 266 273 276 264 269 275 270 266 259 243 241 249 253 257 259 257 256 258 259 259 260 262 262 264 264 261 255 253 253 251 248 250 251 248 242 234 228 222 220 224 227 225 222 223 222 221 220 219 218 216 212 209 205 202 200 198 197 198
191 243 54 88 259 256 208 218 247 257 269 269 262 248 222 213 212 214 216 210 215 234 245 248 253 257 259 264 272 274 266 262 265 262 264 269 260 226 235 247 250 252 254 257 258 257 256 252 250 252 252 255 260 258 251 250 249 246 245 244 243 241 239 231 223 218 219 222 222 218 217 217 215 213 213 212 209 206 202 199 196 193 192 190 189 190
163 190 111 130 226 265 258 235 250 283 291 274 261 231 211 216 220 219 221 217 214 221 234 239 242 247 255 268 277 274 264 257 258 255 258 267 261 231 235 245 249 251 253 258 259 252 249 249 246 246 248 252 255 256 255 251 243 241 244 243 240 239 238 229 219 215 215 216 214 213 212 210 208 206 204 201 198 195 191 189 188 187 186 184 184 184
168 174 180 175 195 266 285 336 35 251 253 265 271 185 197 209 212 218 227 223 215 217 228 239 247 253 258 258 260 267 267 261 259 257 249 249 251 240 238 240 246 256 262 260 254 250 250 252 253 250 250 252 255 259 263 258 248 245 246 243 239 237 230 218 210 207 208 207 206 206 204 203 201 197 193 190 187 183 181 180 180 180 180 180 178 178
179 175 194 182 152 239 276 77 177 233 234 267 356 144 200 208 203 214 231 231 220 222 231 243 252 252 249 250 249 259 266 264 266 268 250 207 221 234 239 246 249 257 265 263 258 257 256 256 260 259 255 257 260 262 262 257 250 247 242 236 231 225 214 204 197 195 196 194 194 196 194 192 190 186 182 179 176 174 172 172 171 169 169 170 169 170
163 164 180 165 150 203 131 154 220 251 285 303 292 185 107 82 151 200 250 248 230 224 228 238 247 247 246 252 251 251 259 266 275 278 259 200 219 234 238 248 250 247 253 257 259 261 266 270 268 265 265 266 266 262 254 250 245 236 229 223 215 204 194 187 180 176 177 178 180 184 184 182 180 175 170 167 165 162 160 160 159 157 156 155 153 154
157 163 190 213 206 203 208 218 246 292 299 286 264 215 176 190 177 169 252 255 224 211 224 232 243 248 245 246 248 249 263 284 289 284 270 233 231 236 230 236 246 248 252 261 270 276 293 304 291 282 283 276 273 273 262 250 233 215 201 190 184 178 173 168 162 161 165 168 172 176 178 177 173 165 159 158 156 153 150 150 150 148 149 147 143 142
177 180 187 208 214 188 218 251 265 274 272 266 238 218 198 198 191 164 259 267 212 183 214 225 234 242 238 241 247 248 284 303 279 276 276 264 239 224 225 238 260 276 279 296 307 312 326 333 331 326 318 303 342 334 291 236 205 179 156 147 153 152 147 143 143 149 155 158 163 169 170 170 166 158 153 153 152 149 148 148 148 148 149 148 141 137
201 202 191 204 226 202 211 237 238 248 257 229 152 218 172 175 169 115 313 275 203 166 202 215 225 237 235 238 245 213 140 257 255 262 274 283 52 100 228 275 349 360 354 352 345 340 347 359 20 30 30 34 28 23 75 174 163 141 122 117 123 118 108 106 114 131 140 143 150 156 159 161 160 155 151 150 149 148 148 147 147 147 147 146 140 132
203 212 199 209 227 220 219 235 235 247 259 226 181 227 185 146 133 119 259 267 195 174 205 209 219 238 235 230 232 178 182 233 244 259 279 344 80 82 69 36 14 351 357 12 11 12 21 30 42 43 30 16 12 37 120 140 128 112 103 103 103 92 81 89 106 118 126 130 135 141 146 150 151 149 148 146 143 143 144 144 144 145 143 140 137 131
201 211 202 212 227 223 222 236 241 254 256 230 179 180 128 94 110 179 234 248 176 194 224 200 211 236 233 215 210 195 217 232 238 259 33 86 86 48 60 56 31 34 26 14 15 38 62 62 63 62 44 25 21 55 121 128 111 96 98 97 89 80 84 101 112 115 117 121 123 127 132 136 139 139 139 139 139 137 137 139 141 143 140 136 133 129
183 195 199 214 225 222 225 233 242 264 259 228 167 157 137 134 218 230 233 83 143 204 240 205 215 235 230 212 213 222 237 243 250 275 358 68 71 84 103 80 54 50 32 30 36 50 73 72 65 58 46 41 44 54 111 122 111 100 103 97 89 101 112 114 116 116 116 118 117 118 122 124 128 131 131 134 137 133 130 133 138 139 138 135 131 125
174 180 195 207 211 215 227 223 223 254 250 165 148 183 190 203 230 242 277 348 170 180 216 222 229 237 227 222 229 235 249 264 269 276 317 63 89 118 133 104 79 66 42 44 35 23 45 67 67 56 47 50 56 50 72 112 111 100 95 91 100 122 126 123 124 122 119 118 116 115 117 118 121 125 127 131 135 131 127 129 133 134 135 134 129 122
176 183 201 208 199 194 210 210 214 239 232 157 166 206 217 219 237 282 29 266 281 134 205 220 243 249 235 238 252 254 264 276 278 283 291 202 149 113 106 94 95 95 90 94 62 24 36 50 61 62 53 55 66 63 51 87 106 95 84 87 107 123 126 127 129 127 123 122 120 118 118 117 117 119 121 126 131 129 127 129 131 131 134 135 130 123
196 200 214 220 208 204 217 223 226 238 232 195 212 241 240 240 258 276 261 266 279 248 199 198 255 264 235 233 257 269 273 271 279 300 293 221 174 135 117 98 101 112 112 102 74 52 55 59 61 64 54 50 61 67 59 85 111 101 93 104 118 120 122 125 127 123 120 119 119 118 119 117 115 115 116 121 125 125 125 129 130 128 131 134 130 125
219 223 235 232 222 232 239 242 247 250 237 206 236 254 252 252 261 249 247 256 258 246 222 203 238 257 220 213 236 260 271 272 282 289 248 187 166 140 119 105 108 109 97 88 77 69 75 79 71 69 62 51 53 59 58 74 101 104 112 125 127 123 121 121 119 116 115 115 114 114 115 112 108 108 110 111 114 115 117 123 125 123 124 127 124 121
242 242 248 237 227 239 239 231 239 247 241 212 232 248 251 253 246 224 228 242 251 254 246 220 212 215 205 206 215 246 266 274 278 269 226 160 158 122 101 94 93 84 73 85 97 94 94 91 75 73 77 61 52 56 57 55 72 98 119 127 127 128 125 116 109 105 105 107 108 107 108 105 101 100 101 99 100 101 102 107 112 112 113 117 118 116
280 265 248 240 235 241 247 248 255 259 254 244 245 253 263 271 266 254 247 248 257 269 255 213 188 192 212 211 205 239 264 266 257 261 245 137 116 80 78 74 72 69 53 56 76 83 80 73 68 79 80 64 58 66 69 60 63 92 116 121 125 129 125 116 111 106 102 102 102 99 98 98 97 96 95 93 92 92 90 93 98 98 99 110 120 121
316 303 282 274 264 252 256 279 305 299 278 276 302 326 335 332 320 311 307 303 308 319 319 319 334 196 221 230 204 226 259 268 244 226 118 105 92 82 80 71 65 59 42 40 51 62 64 59 59 73 71 59 63 78 83 80 79 93 110 119 128 130 123 116 112 110 107 107 105 101 99 97 96 97 97 95 91 88 84 85 89 90 89 95 111 121
301 293 300 303 287 272 274 4 8 332 283 293 349 354 346 345 338 331 337 351 354 349 341 331 327 340 24 4 328 249 256 266 127 114 111 101 99 102 102 93 82 70 59 54 55 58 58 52 50 61 62 55 61 73 80 87 93 100 112 123 131 132 126 119 111 106 105 105 104 104 104 103 101 101 101 100 98 94 89 87 87 89 88 88 92 103
349 329 336 318 280 295 7 29 22 339 279 299 347 354 346 345 346 344 350 356 353 349 347 337 325 326 346 5 359 323 285 270 129 125 118 109 111 114 111 111 116 110 97 87 79 73 67 59 52 49 44 42 52 63 70 78 86 97 112 124 131 133 131 124 116 109 107 106 104 106 108 108 107 107 105 104 103 101 97 92 88 88 90 93 93 92